Probability
31 28 24 20 19 18 18 17 14 9 5 4 6 10 15 15 12 15 17 11 4 1 0 0 0 0 0 0 0 0 0 0 1 3 3 2 1 0
32 30 26 24 22 20 19 17 14 11 8 7 7 10 15 15 14 17 18 13 7 2 0 0 0 0 0 0 0 0 0 1 2 2 2 1 0 0
30 28 26 25 24 21 20 18 15 12 11 10 8 10 14 16 16 17 17 14 9 4 1 0 0 0 0 0 0 0 0 1 1 1 1 0 0 0
26 24 22 22 22 22 21 20 17 14 14 12 10 11 12 15 15 14 13 12 9 5 2 1 0 0 0 0 0 0 0 0 0 0 0 0 0 0
23 23 21 19 20 21 22 21 18 15 14 12 11 11 12 14 14 12 11 12 10 7 4 1 0 0 0 0 0 0 0 0 0 0 0 0 0 0
21 21 19 17 17 18 18 19 17 14 13 11 10 10 12 13 13 11 12 13 12 11 8 5 3 1 0 0 0 0 0 0 0 0 0 0 0 0
19 19 18 16 15 15 15 16 16 14 12 10 9 9 10 11 11 11 11 12 13 14 12 9 7 5 5 4 2 1 0 0 0 0 0 0 0 0
19 19 18 17 16 13 12 13 13 12 11 10 8 8 8 9 9 9 10 10 12 13 11 10 9 10 10 8 5 1 0 0 0 0 0 0 0 0
20 20 18 17 16 13 11 10 10 9 9 7 7 8 8 8 9 9 8 8 9 9 7 7 10 11 9 7 4 1 0 0 0 0 0 0 0 0
20 19 17 16 14 11 10 9 8 7 5 4 4 5 5 6 7 6 5 5 5 4 4 5 7 8 7 4 2 0 0 0 0 0 0 0 0 0
18 16 14 13 11 8 8 8 8 7 5 2 1 1 2 2 2 2 1 1 1 2 3 4 5 6 6 5 3 1 0 0 0 0 0 0 0 0
15 14 11 9 7 6 6 7 7 7 5 3 1 0 1 1 0 0 0 0 0 1 3 4 5 5 6 6 4 2 1 1 0 0 0 0 0 0
12 12 9 6 4 4 5 6 6 6 5 4 2 2 2 2 1 0 1 1 1 1 2 3 4 4 4 4 4 3 3 3 1 1 1 0 0 0
9 9 7 4 3 3 4 5 4 4 5 4 3 3 3 3 1 0 0 1 1 1 2 3 3 3 3 3 3 3 4 3 2 2 2 1 0 0
6 6 5 3 1 1 3 3 3 3 4 3 3 3 4 4 2 1 0 1 1 1 1 3 2 2 2 3 3 3 3 2 2 1 1 1 0 0
4 4 3 3 2 2 3 3 3 3 3 3 2 2 3 3 2 1 0 1 1 1 2 3 3 2 2 2 2 2 2 2 2 1 1 0 1 1
3 3 3 4 5 5 5 4 3 2 1 2 1 1 1 1 1 0 0 1 1 2 3 3 3 3 2 1 1 1 2 3 3 2 1 1 1 2
3 3 4 5 6 6 6 5 4 3 2 1 1 1 1 0 0 0 0 0 0 1 2 3 3 3 2 1 0 0 1 1 3 3 2 1 1 2
2 3 4 5 6 6 6 6 6 5 3 2 1 1 1 0 0 0 0 0 0 0 1 3 3 3 1 0 0 0 0 1 2 3 3 2 1 1
3 4 5 5 6 7 7 7 7 6 4 3 2 0 0 0 0 0 0 0 0 0 1 2 2 2 1 0 0 0 0 0 1 2 3 2 1 0
4 5 5 6 7 8 8 7 6 5 3 3 2 1 0 0 0 1 1 1 1 1 1 1 1 1 0 0 0 0 0 0 1 1 2 2 1 0
4 5 5 6 6 7 7 6 5 3 3 2 2 1 1 1 2 2 3 3 3 2 1 0 0 0 0 0 0 0 0 1 1 1 1 2 2 1
4 4 5 6 5 5 5 4 4 3 3 2 2 1 1 2 3 3 5 5 5 3 1 0 0 0 0 0 0 0 0 1 0 0 0 1 2 1
Wind_Speed
2 2 2 2 2 2 2 1 2 3 2 2 2 1 0 1 3 2 2 4 6 6 6 6 5 4 4 4 3 4 4 4 3 3 4 5 6 7
1 1 2 2 2 2 2 2 1 1 2 2 2 2 2 1 2 1 1 3 6 7 7 7 6 5 4 4 4 4 3 3 3 3 3 3 4 5
2 2 2 2 2 2 2 2 1 1 2 3 2 3 3 2 1 1 2 2 3 6 7 7 7 6 6 5 4 3 3 3 3 3 3 3 3 3
2 2 2 2 2 2 2 2 2 1 2 3 3 3 3 2 2 3 3 3 2 5 7 7 7 6 6 6 5 4 3 3 3 2 2 3 3 3
2 2 2 2 2 2 2 3 2 2 1 2 3 2 2 3 2 3 3 2 3 2 5 6 6 7 7 6 6 5 4 3 2 2 2 3 3 3
2 2 2 2 2 2 2 2 2 2 2 2 2 2 2 3 2 2 3 2 2 3 1 2 4 5 7 6 6 6 4 4 3 3 3 3 3 3
2 2 2 1 1 2 3 2 2 2 2 2 2 2 2 2 2 2 3 2 3 2 1 2 1 2 3 5 5 6 5 5 4 4 3 3 3 2
2 2 2 1 1 1 2 2 2 3 2 2 2 2 3 3 2 3 3 3 2 1 2 3 2 1 2 2 5 6 6 6 5 4 4 3 3 3
2 2 3 2 1 1 2 3 3 4 3 3 4 4 4 3 3 4 4 3 4 3 2 3 2 1 2 1 4 6 6 6 6 5 4 4 4 4
2 1 1 1 2 2 2 2 3 2 3 4 3 3 3 2 2 3 4 4 4 3 2 2 2 2 2 1 2 4 5 6 6 5 5 5 5 4
2 1 0 0 2 2 2 2 3 3 4 4 4 4 4 4 3 2 3 3 3 3 1 1 1 2 2 2 2 4 6 6 6 6 6 6 5 4
2 1 0 1 1 1 2 2 3 3 4 4 4 4 4 4 5 3 3 3 3 2 1 1 1 2 2 2 1 2 3 5 6 7 7 6 5 3
3 1 1 1 1 3 3 3 4 4 4 4 3 3 3 2 2 3 2 2 2 2 2 1 1 1 2 2 2 2 2 2 2 3 5 6 6 5
3 2 2 3 4 5 5 5 6 5 3 3 3 3 2 2 2 2 2 3 3 4 3 2 1 1 2 3 3 2 3 2 1 1 2 3 4 6
3 5 6 6 6 6 7 7 5 3 3 3 3 3 2 2 2 1 2 2 2 3 3 2 2 2 2 3 3 3 3 3 2 2 1 2 2 3
4 5 6 5 4 5 4 3 3 2 3 3 3 3 2 1 1 1 1 1 1 2 2 2 2 2 2 3 3 3 3 2 2 2 2 2 2 3
4 4 3 2 2 1 1 1 1 2 3 3 3 3 2 1 1 1 1 1 2 2 2 1 1 2 3 3 3 3 2 2 2 2 2 2 2 2
3 3 3 2 2 2 3 2 2 2 2 3 2 2 2 2 1 1 1 1 2 2 2 2 1 2 2 3 3 3 2 2 2 2 2 2 2 2
2 3 2 2 2 2 2 2 2 2 2 3 2 2 2 2 2 2 2 2 2 2 2 2 2 1 3 4 3 3 3 3 2 2 2 2 2 2
2 2 2 2 2 2 2 2 2 2 2 2 3 2 2 2 2 2 2 2 2 3 3 2 2 2 3 4 4 4 4 3 2 2 2 1 1 0
2 2 2 2 2 2 2 2 2 2 2 2 2 2 2 2 2 3 3 3 2 2 3 3 2 3 2 2 3 3 3 3 2 2 2 1 1 1
2 2 2 2 2 2 2 2 2 2 3 3 2 2 2 2 3 3 3 3 2 3 3 3 2 2 2 3 4 4 3 2 2 2 2 2 2 3
1 2 2 2 2 2 2 2 3 3 3 3 3 2 3 3 3 3 3 3 3 3 3 2 2 2 3 3 3 3 4 4 2 1 1 2 3 3
Wind_Direction
305 312 310 308 304 296 290 283 278 297 306 317 314 314 44 89 128 178 203 198 207 212 210 212 216 224 236 248 252 259 269 277 278 284 276 264 258 256
293 305 305 311 309 307 306 296 285 277 289 311 313 333 331 313 133 181 248 215 215 212 208 208 217 223 228 235 238 243 250 250 250 267 278 279 268 258
297 301 300 325 332 319 315 314 305 282 273 291 308 320 316 313 309 266 260 234 222 215 212 211 214 218 222 227 229 231 238 239 246 254 263 276 282 268
296 309 312 317 318 309 320 312 311 280 255 277 286 287 291 293 285 276 285 275 249 217 208 211 210 216 223 224 224 225 221 228 246 256 261 261 263 262
295 299 298 305 301 306 309 305 297 299 275 264 274 280 287 299 304 295 292 287 288 249 210 213 214 219 222 219 215 213 215 218 229 245 255 261 265 269
286 279 278 278 288 297 293 294 299 305 297 284 277 286 296 303 306 306 306 306 298 294 287 229 220 222 221 215 205 201 204 209 217 228 243 253 259 261
286 277 273 271 294 293 308 317 312 305 300 297 294 305 311 319 317 307 301 298 298 301 307 274 237 226 218 209 199 196 199 206 213 222 233 241 247 252
292 293 276 267 248 258 287 292 284 276 286 289 293 294 301 305 316 311 313 310 298 299 309 294 289 263 231 196 180 185 196 206 214 222 228 231 232 240
289 295 297 318 25 311 270 271 275 282 276 264 271 279 285 298 305 305 300 297 285 282 287 282 288 306 293 223 174 188 199 207 214 221 226 228 230 234
274 265 290 345 328 326 286 286 279 282 268 260 267 279 289 299 293 288 286 285 276 269 263 276 282 299 303 262 206 205 208 216 220 223 226 227 228 233
276 271 300 306 340 344 297 286 284 284 277 288 280 267 270 271 271 294 296 293 292 293 299 281 303 320 297 272 249 222 219 223 226 227 229 227 229 232
275 234 175 291 277 258 265 279 288 297 306 298 286 271 259 254 243 231 260 285 297 298 339 349 312 324 304 286 289 262 231 231 235 229 228 230 223 219
307 310 319 347 292 262 262 265 274 287 288 282 274 268 261 251 231 221 233 247 268 281 305 324 297 306 288 293 294 280 263 242 227 235 229 226 216 210
306 322 303 267 261 260 256 265 275 284 278 278 278 275 275 272 261 239 237 236 238 251 255 250 263 269 279 292 296 288 284 277 268 248 227 217 218 227
316 323 304 271 260 253 250 256 257 259 272 279 281 277 271 262 263 258 245 247 263 272 268 231 226 247 248 260 275 284 287 274 252 264 248 200 212 212
307 307 291 272 258 262 263 253 245 253 258 267 277 280 290 283 257 265 279 276 277 284 282 268 248 236 251 263 267 270 272 263 256 269 262 235 224 214
320 301 288 289 280 278 275 285 282 286 280 283 285 285 288 293 286 258 252 285 283 281 292 296 285 270 257 259 262 264 271 279 264 266 270 265 247 231
308 294 299 314 325 325 320 307 299 304 299 293 294 296 299 298 291 292 291 285 287 290 290 285 296 305 301 291 255 260 272 278 276 264 257 263 268 251
272 286 299 315 323 317 308 306 305 302 305 310 303 302 307 302 292 283 282 279 280 279 280 281 282 291 302 299 293 259 263 268 263 261 253 250 259 258
267 285 299 309 310 306 307 309 311 314 326 319 313 313 313 309 302 293 284 289 292 291 291 290 289 284 281 288 294 296 274 252 253 252 260 264 278 311
287 293 299 303 305 303 308 308 306 309 321 313 307 304 305 303 299 294 291 297 293 291 291 291 293 294 284 289 288 291 296 277 262 250 241 234 247 257
292 300 309 310 304 301 299 303 307 311 312 308 310 305 303 301 298 293 293 295 290 290 299 303 306 309 294 283 286 289 293 296 275 262 249 215 208 221
326 323 324 322 320 316 322 323 320 317 318 320 317 306 310 301 289 287 288 293 299 299 301 302 302 294 290 282 284 291 298 299 285 275 285 273 248 228